ENMS Weather Reports


Display with metric or nautical units.
time (UTC)temp
F
wind
direction
speed
MPH
gust
MPH
rain 1hr
in
rain 24hr
in
rain mn
in
humidity
%
barometer
mb
20260507113308 44 190 7.0 0.0 0.00 0.00 0.00 56 1016.0
20260507110307 42 190 8.0 0.0 0.00 0.00 0.00 56 1015.0
20260507103307 42 220 9.0 0.0 0.00 0.00 0.00 56 1015.0
20260507100308 42 210 10.0 0.0 0.00 0.00 0.00 56 1015.0
20260507093307 42 210 9.0 0.0 0.00 0.00 0.00 56 1015.0
20260507090308 42 240 8.0 0.0 0.00 0.00 0.00 56 1015.0
20260507083307 42 140 6.0 0.0 0.00 0.00 0.00 60 1014.0
20260507080308 41 190 10.0 0.0 0.00 0.00 0.00 70 1014.0
20260507073307 41 180 12.0 0.0 0.00 0.00 0.00 65 1014.0
20260507070307 42 180 7.0 0.0 0.00 0.00 0.00 65 1014.0
20260507063307 41 100 3.0 0.0 0.00 0.00 0.00 70 1014.0
20260507053307 37 200 7.0 0.0 0.00 0.00 0.00 80 1013.0
20260507050307 37 200 6.0 0.0 0.00 0.00 0.00 80 1013.0
20260507043308 35 220 5.0 0.0 0.00 0.00 0.00 86 1013.0
20260507040308 33 0 0.0 0.0 0.00 0.00 0.00 86 1013.0
20260507033307 33 200 5.0 0.0 0.00 0.00 0.00 86 1013.0
20260507030306 33 190 6.0 0.0 0.00 0.00 0.00 93 1013.0
20260507023307 33 150 3.0 0.0 0.00 0.00 0.00 86 1013.0
20260507020307 33 0 2.0 0.0 0.00 0.00 0.00 93 1013.0
20260507013307 33 150 3.0 0.0 0.00 0.00 0.00 93 1013.0
20260507010306 33 0 2.0 0.0 0.00 0.00 0.00 93 1012.0
20260507003307 33 0 0.0 0.0 0.00 0.00 0.00 93 1012.0
20260507000307 33 0 0.0 0.0 0.00 0.00 0.00 93 1012.0
20260506233307 33 0 0.0 0.0 0.00 0.00 0.00 86 1012.0
20260506230307 33 0 2.0 0.0 0.00 0.00 0.00 93 1012.0
20260506223307 33 240 3.0 0.0 0.00 0.00 0.00 86 1012.0
20260506220307 33 0 2.0 0.0 0.00 0.00 0.00 93 1012.0
20260506213307 35 0 2.0 0.0 0.00 0.00 0.00 86 1012.0
20260506210307 35 0 2.0 0.0 0.00 0.00 0.00 86 1012.0
20260506203306 35 170 3.0 0.0 0.00 0.00 0.00 86 1011.0
20260506200306 37 0 2.0 0.0 0.00 0.00 0.00 80 1011.0
20260506193307 37 160 5.0 0.0 0.00 0.00 0.00 86 1011.0
20260506190306 39 170 6.0 0.0 0.00 0.00 0.00 80 1011.0
20260506183307 39 170 7.0 0.0 0.00 0.00 0.00 75 1011.0
20260506180307 41 0 2.0 0.0 0.00 0.00 0.00 70 1011.0
20260506173308 41 220 7.0 0.0 0.00 0.00 0.00 70 1011.0
20260506170307 41 190 10.0 0.0 0.00 0.00 0.00 75 1010.0
20260506163307 41 180 3.0 0.0 0.00 0.00 0.00 80 1010.0
20260506160307 41 160 6.0 0.0 0.00 0.00 0.00 75 1010.0
20260506153307 39 170 9.0 0.0 0.00 0.00 0.00 80 1010.0
20260506150307 37 170 8.0 0.0 0.00 0.00 0.00 86 1010.0
20260506143307 41 190 7.0 0.0 0.00 0.00 0.00 70 1010.0
20260506140307 41 180 10.0 0.0 0.00 0.00 0.00 70 1010.0
20260506133307 42 170 9.0 0.0 0.00 0.00 0.00 70 1009.0
20260506130308 42 210 3.0 0.0 0.00 0.00 0.00 70 1009.0
20260506123307 42 0 3.0 0.0 0.00 0.00 0.00 70 1009.0
20260506120308 42 360 8.0 0.0 0.00 0.00 0.00 70 1009.0